Flag for Malaysia Weather past 2 weeks in Johor Bahru, Malaysia

Now
77 °F

Passing clouds.


Feels Like: 78 °F
Forecast: 81 / 91 °F
Wind: No wind

Location: Johore Bharu / Senai

Current Time: Jul 26, 2014 at 3:47:38 AM

Latest Report: Jul 26, 2014 at 3:00 AM


Visibility: N/A

Pressure: 29.83 "Hg

Humidity: 94%

Dew point: 75 °F

Location of Johor BahruLocation

Historic Weather in Johor Bahru — Graph

°F

Johor Bahru temperature yesterday

Maximum temperature yesterday: 91 °F (at 1:00 PM)
Minimum temperature yesterday: 75 °F (at 4:00 AM)
Average temperature yesterday: 83 °F

Past Weeks' High & Low Weather Summary

 TemperatureHumidityPressure
High91 °F (Jul 14, 2:00 PM)100% (Jul 11, 2:00 AM)29.89 "Hg (Jul 11, 2:00 AM)
Low75 °F (Jul 11, 2:00 AM)55% (Jul 13, 2:00 PM)29.71 "Hg (Jul 11, 3:00 PM)
Average82 °F85%29.80 "Hg
* Reported Jul 11 2:00 AM — Jul 26 2:00 AM, Johor Bahru, Weather by CustomWeather, © 2014

Note: Actual official high and low records may vary slightly from our data, if they occured in-between our weather recording intervals... More about our weather records

Advertising

Johor Bahru weather history for previous 24 hours

 ConditionsComfort  
Time TempWeatherWind HumidityBarometerVisibility
2:00 AM
Jul 26
77 °FPassing clouds.No wind100%29.83 "HgN/A
1:00 AM79 °FPassing clouds.No wind89%29.86 "HgN/A
12:00 AM81 °FPassing clouds.1 mph89%29.86 "HgN/A
11:00 PM
Jul 25
81 °FPassing clouds.1 mph89%29.86 "HgN/A
10:00 PM84 °FPassing clouds.5 mph79%29.86 "HgN/A
9:00 PM84 °FPassing clouds.2 mph79%29.83 "HgN/A
8:00 PM86 °FPassing clouds.2 mph75%29.80 "HgN/A
7:00 PM88 °FPartly sunny.5 mph66%29.77 "HgN/A
6:00 PM90 °FPartly sunny.6 mph67%29.77 "HgN/A
5:00 PM91 °FPartly sunny.7 mph63%29.74 "HgN/A
4:00 PM91 °FPartly sunny.6 mph63%29.74 "HgN/A
3:00 PM91 °FPartly sunny.8 mph63%29.77 "HgN/A
2:00 PM91 °FBroken clouds.9 mph63%29.80 "HgN/A
1:00 PM91 °FBroken clouds.9 mph63%29.83 "HgN/A
12:00 PM90 °FBroken clouds.7 mph71%29.86 "HgN/A
11:00 AM88 °FBroken clouds.5 mph75%29.86 "HgN/A
10:00 AM86 °FPartly sunny.5 mph84%29.86 "HgN/A
9:00 AM79 °FPartly sunny.1 mph100%29.86 "Hg4 mi
8:00 AM75 °FFog.No wind100%29.83 "Hg1 mi
7:00 AM75 °FFog.No wind100%29.83 "Hg1 mi
6:00 AM75 °FFog.No wind100%29.80 "Hg1 mi
5:00 AM75 °FFog.1 mph100%29.80 "Hg1 mi
4:00 AM75 °FPassing clouds.1 mph100%29.80 "HgN/A
3:00 AM77 °FPassing clouds.No wind94%29.80 "HgN/A
Weather by CustomWeather, © 2014

See weather overviewHow to use our weather pages